Find GPS III SV04

NORAD ID: 46826 Int'l Des: 2020-078 Owner: SMC Country: US Constellation: GPS operational
MEOCIRCULARGNSS

当前视图

正在加载3D地球...

About GPS III SV04

GPS III SV04 (NORAD 46826) is a GPS constellation satellite launched Nov 5, 2020 by SMC of US. It operates in MEO, CIRCULAR, GNSS orbit with a mass of 4400.00 kg.

关于 GPS III SV04

正在加载描述...

即将过境

Passes for default location (London). Set your location on the main map for personalized predictions.

高度历史

Loading altitude history...

两行轨道根数

1 46826U 20078A 26166.28723538 .00000071 00000-0 00000-0 0 9990
2 46826 53.9800 210.8558 0073451 207.1440 163.1443 2.00564761 41479
Epoch: Jun 15, 2026 • Age: 15 hours

当前状态

高度 20225.8 km
速度 3.87 km/s
星下点 51.08°N, 91.53°E
发射日期 Nov 5, 2020
运行时间 5.6 years
类型 navigation

技术详情

分类 Payload
质量 4400.00 kg
干质量 2160.00 kg
总质量 4400.00 kg
长度 3.40 m
直径 1.80 m
跨度 14.00 m
形状 Box + 2 pan
制造商 LMSSD
平台类型 A2100
阶段状态 In Orbit
所有者/国家 SMC/US

Most Searched